Location: Cucq
(50.4773°N, 1.6202°E)
Time: 06:08:44
(UTC+00:00)

Cosmos 1513 Rocket - Pass Details

Date: 07 August 2020
Orbit: 939 x 1009 km, 82.9° (Epoch: 23 September)

Event Time Altitude Azimuth Distance (km) Brightness Sun altitude
Exits shadow 00:37:36 45° 193° (SSW) 1,341 4.7 -22.7°
Maximum altitude 00:39:47 86° 280° (W) 1,016 4.5 -22.6°
Drops below altitude 10° 00:46:15 10° 9° (N) 2,801 8.0 -22.4°
Sets 00:48:49 0° 10° (N) 3,755 9.1 -22.3°
